contact:dominique.lefevre@mio.osupytheas.fr, maurice.libes@osupytheas.fr, didier.mallarino@osupytheas.fr
Project:EMSO http://www.emso-fr.org/EMSO-France
Depth: 2436.0 m
Title:EMSO Ligure Ouest : Data MII capteur CSTAR
DateTime,Latitude,Longitude,Instrument_Serial,Reference_Counts,Signal_Counts,Corrected_Signal_raw_counts,Calculated_Beam_c_inverse_meters,Internal_thermistor_counts
DateTime,Latitude,Longitude,Instrument_Serial,Reference_Counts,Signal_Counts,Corrected_Signal_raw_counts,Calculated_Beam_c_inverse_meters,Internal_thermistor_counts
2019-06-09T00:00:23,42.805,6.029,CST-1368DR,9138,12786,15543,0.019,551
2019-06-09T00:03:24,42.805,6.029,CST-1368DR,9138,12785,15542,0.019,550
2019-06-09T00:06:26,42.805,6.029,CST-1368DR,9137,12786,15544,0.018,551
2019-06-09T00:09:27,42.805,6.029,CST-1368DR,9137,12786,15544,0.018,551
2019-06-09T00:12:28,42.805,6.029,CST-1368DR,9137,12785,15543,0.019,551
2019-06-09T00:15:30,42.805,6.029,CST-1368DR,9137,12786,15544,0.018,551
2019-06-09T00:18:31,42.805,6.029,CST-1368DR,9137,12783,15540,0.020,551
2019-06-09T00:21:33,42.805,6.029,CST-1368DR,9137,12786,15545,0.018,551
2019-06-09T00:24:34,42.805,6.029,CST-1368DR,9137,12787,15545,0.018,551
2019-06-09T00:27:35,42.805,6.029,CST-1368DR,9137,12787,15545,0.018,551
2019-06-09T00:30:37,42.805,6.029,CST-1368DR,9137,12785,15543,0.019,551
2019-06-09T00:33:38,42.805,6.029,CST-1368DR,9137,12783,15541,0.019,551
2019-06-09T00:36:40,42.805,6.029,CST-1368DR,9137,12785,15543,0.019,551
2019-06-09T00:39:41,42.805,6.029,CST-1368DR,9137,12785,15543,0.019,551
2019-06-09T00:42:43,42.805,6.029,CST-1368DR,9137,12786,15544,0.018,551
2019-06-09T00:45:44,42.805,6.029,CST-1368DR,9137,12785,15543,0.019,551
2019-06-09T00:48:45,42.805,6.029,CST-1368DR,9137,12785,15542,0.019,551
2019-06-09T00:51:47,42.805,6.029,CST-1368DR,9137,12786,15544,0.018,551
2019-06-09T00:54:48,42.805,6.029,CST-1368DR,9137,12785,15543,0.019,551
2019-06-09T00:57:50,42.805,6.029,CST-1368DR,9137,12786,15544,0.018,551
2019-06-09T01:00:51,42.805,6.029,CST-1368DR,9137,12786,15544,0.018,551
2019-06-09T01:03:52,42.805,6.029,CST-1368DR,9137,12785,15543,0.019,551
2019-06-09T01:06:54,42.805,6.029,CST-1368DR,9137,12785,15542,0.019,550
2019-06-09T01:09:55,42.805,6.029,CST-1368DR,9137,12787,15545,0.018,551
2019-06-09T01:12:57,42.805,6.029,CST-1368DR,9137,12786,15544,0.018,551
2019-06-09T01:15:58,42.805,6.029,CST-1368DR,9137,12788,15546,0.018,551
2019-06-09T01:18:59,42.805,6.029,CST-1368DR,9137,12786,15544,0.018,551
2019-06-09T01:22:01,42.805,6.029,CST-1368DR,9137,12786,15545,0.018,551
2019-06-09T01:25:02,42.805,6.029,CST-1368DR,9137,12785,15543,0.019,550
2019-06-09T01:28:04,42.805,6.029,CST-1368DR,9137,12787,15545,0.018,551
2019-06-09T01:31:05,42.805,6.029,CST-1368DR,9137,12788,15546,0.018,551
2019-06-09T01:34:06,42.805,6.029,CST-1368DR,9137,12788,15546,0.018,551
2019-06-09T01:37:08,42.805,6.029,CST-1368DR,9137,12788,15547,0.018,551
2019-06-09T01:40:09,42.805,6.029,CST-1368DR,9137,12788,15546,0.018,551
2019-06-09T01:43:11,42.805,6.029,CST-1368DR,9137,12786,15545,0.018,551
2019-06-09T01:46:12,42.805,6.029,CST-1368DR,9137,12786,15544,0.018,551
2019-06-09T01:49:14,42.805,6.029,CST-1368DR,9137,12788,15546,0.018,551
2019-06-09T01:52:15,42.805,6.029,CST-1368DR,9136,12786,15546,0.018,551
2019-06-09T01:55:16,42.805,6.029,CST-1368DR,9137,12786,15544,0.018,551
2019-06-09T01:58:18,42.805,6.029,CST-1368DR,9136,12786,15546,0.018,551
2019-06-09T02:01:19,42.805,6.029,CST-1368DR,9136,12787,15547,0.018,551
2019-06-09T02:04:21,42.805,6.029,CST-1368DR,9136,12786,15546,0.018,551
2019-06-09T02:07:22,42.805,6.029,CST-1368DR,9136,12786,15546,0.018,551
2019-06-09T02:10:23,42.805,6.029,CST-1368DR,9136,12786,15546,0.018,551
2019-06-09T02:13:25,42.805,6.029,CST-1368DR,9136,12787,15547,0.018,551
2019-06-09T02:16:26,42.805,6.029,CST-1368DR,9136,12786,15545,0.018,551
2019-06-09T02:19:28,42.805,6.029,CST-1368DR,9136,12786,15546,0.018,551
2019-06-09T02:22:29,42.805,6.029,CST-1368DR,9136,12785,15545,0.018,551
2019-06-09T02:25:30,42.805,6.029,CST-1368DR,9136,12786,15546,0.018,551
2019-06-09T02:28:32,42.805,6.029,CST-1368DR,9136,12786,15546,0.018,550
2019-06-09T02:31:33,42.805,6.029,CST-1368DR,9136,12787,15546,0.018,551
2019-06-09T02:34:35,42.805,6.029,CST-1368DR,9136,12786,15546,0.018,551
2019-06-09T02:37:36,42.805,6.029,CST-1368DR,9136,12785,15544,0.018,551
2019-06-09T02:40:38,42.805,6.029,CST-1368DR,9136,12786,15545,0.018,551
2019-06-09T02:43:39,42.805,6.029,CST-1368DR,9136,12785,15545,0.018,551
2019-06-09T02:46:40,42.805,6.029,CST-1368DR,9136,12786,15546,0.018,551
2019-06-09T02:49:42,42.805,6.029,CST-1368DR,9136,12786,15545,0.018,551
2019-06-09T02:52:43,42.805,6.029,CST-1368DR,9136,12785,15545,0.018,551
2019-06-09T02:55:45,42.805,6.029,CST-1368DR,9136,12784,15543,0.019,551
2019-06-09T02:58:46,42.805,6.029,CST-1368DR,9136,12785,15545,0.018,551
2019-06-09T03:01:47,42.805,6.029,CST-1368DR,9136,12783,15542,0.019,551
2019-06-09T03:04:49,42.805,6.029,CST-1368DR,9136,12785,15544,0.018,551
2019-06-09T03:07:50,42.805,6.029,CST-1368DR,9136,12784,15543,0.019,551
2019-06-09T03:10:52,42.805,6.029,CST-1368DR,9135,12785,15546,0.018,551
2019-06-09T03:13:53,42.805,6.029,CST-1368DR,9136,12785,15544,0.018,551
2019-06-09T03:16:54,42.805,6.029,CST-1368DR,9135,12786,15547,0.018,551
2019-06-09T03:19:56,42.805,6.029,CST-1368DR,9136,12785,15545,0.018,551
2019-06-09T03:22:57,42.805,6.029,CST-1368DR,9135,12785,15546,0.018,551
2019-06-09T03:25:59,42.805,6.029,CST-1368DR,9135,12782,15543,0.019,550
2019-06-09T03:29:00,42.805,6.029,CST-1368DR,9135,12781,15541,0.019,551
2019-06-09T03:32:01,42.805,6.029,CST-1368DR,9135,12784,15545,0.018,551
2019-06-09T03:35:03,42.805,6.029,CST-1368DR,9135,12782,15542,0.019,551
2019-06-09T03:38:04,42.805,6.029,CST-1368DR,9135,12784,15544,0.018,551
2019-06-09T03:41:06,42.805,6.029,CST-1368DR,9135,12784,15545,0.018,551
2019-06-09T03:44:07,42.805,6.029,CST-1368DR,9135,12785,15546,0.018,551
2019-06-09T03:47:09,42.805,6.029,CST-1368DR,9135,12783,15544,0.018,550
2019-06-09T03:50:10,42.805,6.029,CST-1368DR,9135,12784,15545,0.018,551
2019-06-09T03:53:11,42.805,6.029,CST-1368DR,9135,12785,15546,0.018,551
2019-06-09T03:56:13,42.805,6.029,CST-1368DR,9135,12781,15542,0.019,550
2019-06-09T03:59:14,42.805,6.029,CST-1368DR,9135,12784,15545,0.018,551
2019-06-09T04:02:16,42.805,6.029,CST-1368DR,9135,12783,15544,0.018,551
2019-06-09T04:05:17,42.805,6.029,CST-1368DR,9135,12783,15544,0.018,551
2019-06-09T04:08:18,42.805,6.029,CST-1368DR,9135,12784,15544,0.018,551
2019-06-09T04:11:20,42.805,6.029,CST-1368DR,9135,12784,15545,0.018,551
2019-06-09T04:14:21,42.805,6.029,CST-1368DR,9135,12783,15544,0.018,551
2019-06-09T04:17:23,42.805,6.029,CST-1368DR,9135,12783,15543,0.019,550
2019-06-09T04:20:24,42.805,6.029,CST-1368DR,9135,12783,15544,0.018,551
2019-06-09T04:23:25,42.805,6.029,CST-1368DR,9135,12783,15543,0.019,551
2019-06-09T04:26:27,42.805,6.029,CST-1368DR,9135,12782,15542,0.019,551
2019-06-09T04:29:28,42.805,6.029,CST-1368DR,9135,12783,15543,0.019,551
2019-06-09T04:32:30,42.805,6.029,CST-1368DR,9135,12783,15544,0.018,551
2019-06-09T04:35:31,42.805,6.029,CST-1368DR,9135,12783,15543,0.019,551
2019-06-09T04:38:32,42.805,6.029,CST-1368DR,9135,12782,15543,0.019,551
2019-06-09T04:41:34,42.805,6.029,CST-1368DR,9135,12782,15543,0.019,551
2019-06-09T04:44:35,42.805,6.029,CST-1368DR,9135,12782,15542,0.019,551
2019-06-09T04:47:37,42.805,6.029,CST-1368DR,9135,12781,15541,0.019,551
2019-06-09T04:50:38,42.805,6.029,CST-1368DR,9135,12782,15543,0.019,550
2019-06-09T04:53:40,42.805,6.029,CST-1368DR,9135,12782,15542,0.019,551
2019-06-09T04:56:41,42.805,6.029,CST-1368DR,9134,12783,15545,0.018,551
2019-06-09T04:59:42,42.805,6.029,CST-1368DR,9135,12782,15542,0.019,551
2019-06-09T05:02:44,42.805,6.029,CST-1368DR,9134,12783,15545,0.018,551
2019-06-09T05:05:45,42.805,6.029,CST-1368DR,9134,12780,15542,0.019,550
2019-06-09T05:08:47,42.805,6.029,CST-1368DR,9134,12779,15541,0.019,551
2019-06-09T05:11:48,42.805,6.029,CST-1368DR,9134,12782,15544,0.018,551
2019-06-09T05:14:49,42.805,6.029,CST-1368DR,9134,12782,15544,0.018,551
2019-06-09T05:17:51,42.805,6.029,CST-1368DR,9134,12782,15544,0.018,551
2019-06-09T05:20:52,42.805,6.029,CST-1368DR,9134,12782,15544,0.018,551
2019-06-09T05:23:54,42.805,6.029,CST-1368DR,9134,12783,15545,0.018,551
2019-06-09T05:26:55,42.805,6.029,CST-1368DR,9134,12782,15544,0.018,551
2019-06-09T05:29:56,42.805,6.029,CST-1368DR,9134,12780,15542,0.019,550
2019-06-09T05:32:58,42.805,6.029,CST-1368DR,9134,12783,15545,0.018,551
2019-06-09T05:35:59,42.805,6.029,CST-1368DR,9134,12781,15543,0.019,551
2019-06-09T05:39:01,42.805,6.029,CST-1368DR,9134,12780,15541,0.019,551
2019-06-09T05:42:02,42.805,6.029,CST-1368DR,9134,12783,15545,0.018,550
2019-06-09T05:45:03,42.805,6.029,CST-1368DR,9134,12783,15545,0.018,551
2019-06-09T05:48:05,42.805,6.029,CST-1368DR,9134,12773,15533,0.021,551
2019-06-09T05:51:06,42.805,6.029,CST-1368DR,9134,12780,15542,0.019,551
2019-06-09T05:54:08,42.805,6.029,CST-1368DR,9134,12782,15544,0.018,551
2019-06-09T05:57:09,42.805,6.029,CST-1368DR,9134,12783,15545,0.018,551
2019-06-09T06:00:11,42.805,6.029,CST-1368DR,9134,12779,15541,0.019,551
2019-06-09T06:03:12,42.805,6.029,CST-1368DR,9134,12780,15541,0.019,551
2019-06-09T06:06:13,42.805,6.029,CST-1368DR,9134,12783,15545,0.018,551
2019-06-09T06:09:15,42.805,6.029,CST-1368DR,9134,12782,15543,0.019,551
2019-06-09T06:12:16,42.805,6.029,CST-1368DR,9134,12782,15544,0.018,551
2019-06-09T06:15:18,42.805,6.029,CST-1368DR,9134,12784,15546,0.018,551
2019-06-09T06:18:19,42.805,6.029,CST-1368DR,9134,12783,15545,0.018,551
2019-06-09T06:21:20,42.805,6.029,CST-1368DR,9134,12783,15546,0.018,551
2019-06-09T06:24:22,42.805,6.029,CST-1368DR,9134,12783,15546,0.018,551
2019-06-09T06:27:23,42.805,6.029,CST-1368DR,9134,12782,15544,0.018,551
2019-06-09T06:30:25,42.805,6.029,CST-1368DR,9134,12783,15545,0.018,551
2019-06-09T06:33:26,42.805,6.029,CST-1368DR,9134,12783,15546,0.018,550
2019-06-09T06:36:27,42.805,6.029,CST-1368DR,9134,12782,15544,0.018,551
2019-06-09T06:39:29,42.805,6.029,CST-1368DR,9134,12782,15544,0.018,551
2019-06-09T06:42:30,42.805,6.029,CST-1368DR,9134,12782,15544,0.018,551
2019-06-09T06:45:32,42.805,6.029,CST-1368DR,9134,12781,15543,0.019,551
2019-06-09T06:48:33,42.805,6.029,CST-1368DR,9134,12783,15545,0.018,551
2019-06-09T06:51:34,42.805,6.029,CST-1368DR,9134,12782,15544,0.018,551
2019-06-09T06:54:36,42.805,6.029,CST-1368DR,9133,12780,15544,0.018,551
2019-06-09T06:57:37,42.805,6.029,CST-1368DR,9133,12782,15545,0.018,551
2019-06-09T07:00:39,42.805,6.029,CST-1368DR,9133,12782,15546,0.018,551
2019-06-09T07:03:40,42.805,6.029,CST-1368DR,9133,12782,15546,0.018,551
2019-06-09T07:06:42,42.805,6.029,CST-1368DR,9133,12781,15545,0.018,551
2019-06-09T07:09:43,42.805,6.029,CST-1368DR,9133,12782,15545,0.018,550
2019-06-09T07:12:44,42.805,6.029,CST-1368DR,9133,12779,15542,0.019,551
2019-06-09T07:15:46,42.805,6.029,CST-1368DR,9133,12782,15545,0.018,550
2019-06-09T07:18:47,42.805,6.029,CST-1368DR,9133,12782,15546,0.018,550
2019-06-09T07:21:49,42.805,6.029,CST-1368DR,9133,12781,15545,0.018,551
2019-06-09T07:24:50,42.805,6.029,CST-1368DR,9133,12778,15540,0.020,551
2019-06-09T07:27:51,42.805,6.029,CST-1368DR,9133,12782,15546,0.018,551
2019-06-09T07:30:53,42.805,6.029,CST-1368DR,9133,12780,15543,0.019,551
2019-06-09T07:33:54,42.805,6.029,CST-1368DR,9133,12778,15540,0.020,551
2019-06-09T07:36:56,42.805,6.029,CST-1368DR,9133,12781,15544,0.018,550
2019-06-09T07:39:57,42.805,6.029,CST-1368DR,9133,12781,15545,0.018,551
2019-06-09T07:42:58,42.805,6.029,CST-1368DR,9133,12781,15544,0.018,551
2019-06-09T07:46:00,42.805,6.029,CST-1368DR,9133,12780,15543,0.019,551
2019-06-09T07:49:01,42.805,6.029,CST-1368DR,9133,12782,15545,0.018,551
2019-06-09T07:52:03,42.805,6.029,CST-1368DR,9133,12771,15532,0.022,551
2019-06-09T07:55:04,42.805,6.029,CST-1368DR,9133,12776,15538,0.020,551
2019-06-09T07:58:05,42.805,6.029,CST-1368DR,9133,12782,15545,0.018,551
2019-06-09T08:01:07,42.805,6.029,CST-1368DR,9133,12782,15546,0.018,551
2019-06-09T08:04:08,42.805,6.029,CST-1368DR,9133,12781,15545,0.018,551
2019-06-09T08:07:10,42.805,6.029,CST-1368DR,9133,12782,15545,0.018,551
2019-06-09T08:10:11,42.805,6.029,CST-1368DR,9133,12781,15544,0.018,551
2019-06-09T08:13:13,42.805,6.029,CST-1368DR,9133,12780,15544,0.018,551
2019-06-09T08:16:14,42.805,6.029,CST-1368DR,9133,12781,15544,0.018,551
2019-06-09T08:19:15,42.805,6.029,CST-1368DR,9133,12781,15544,0.018,551
2019-06-09T08:22:17,42.805,6.029,CST-1368DR,9133,12781,15544,0.018,551
2019-06-09T08:25:18,42.805,6.029,CST-1368DR,9133,12782,15545,0.018,551
2019-06-09T08:28:20,42.805,6.029,CST-1368DR,9133,12782,15545,0.018,551
2019-06-09T08:31:21,42.805,6.029,CST-1368DR,9132,12778,15542,0.019,550
2019-06-09T08:34:22,42.805,6.029,CST-1368DR,9133,12781,15545,0.018,551
2019-06-09T08:37:24,42.805,6.029,CST-1368DR,9132,12783,15548,0.017,551
2019-06-09T08:40:25,42.805,6.029,CST-1368DR,9132,12782,15547,0.018,551
2019-06-09T08:43:27,42.805,6.029,CST-1368DR,9132,12780,15545,0.018,551
2019-06-09T08:46:28,42.805,6.029,CST-1368DR,9133,12782,15545,0.018,551
2019-06-09T08:49:29,42.805,6.029,CST-1368DR,9133,12781,15545,0.018,551
2019-06-09T08:52:31,42.805,6.029,CST-1368DR,9132,12781,15546,0.018,551
2019-06-09T08:55:32,42.805,6.029,CST-1368DR,9132,12781,15546,0.018,551
2019-06-09T08:58:34,42.805,6.029,CST-1368DR,9132,12780,15545,0.018,551
2019-06-09T09:01:35,42.805,6.029,CST-1368DR,9132,12776,15540,0.020,551
2019-06-09T09:04:37,42.805,6.029,CST-1368DR,9132,12781,15546,0.018,551
2019-06-09T09:07:38,42.805,6.029,CST-1368DR,9132,12780,15544,0.018,551
2019-06-09T09:10:39,42.805,6.029,CST-1368DR,9132,12781,15546,0.018,551
2019-06-09T09:13:41,42.805,6.029,CST-1368DR,9132,12780,15545,0.018,551
2019-06-09T09:16:42,42.805,6.029,CST-1368DR,9132,12778,15542,0.019,551
2019-06-09T09:19:44,42.805,6.029,CST-1368DR,9132,12780,15544,0.018,551
2019-06-09T09:22:45,42.805,6.029,CST-1368DR,9132,12781,15546,0.018,551
2019-06-09T09:25:46,42.805,6.029,CST-1368DR,9132,12781,15546,0.018,551
2019-06-09T09:28:48,42.805,6.029,CST-1368DR,9132,12781,15546,0.018,551
2019-06-09T09:31:49,42.805,6.029,CST-1368DR,9132,12779,15543,0.019,551
2019-06-09T09:34:51,42.805,6.029,CST-1368DR,9132,12777,15541,0.019,551
2019-06-09T09:37:52,42.805,6.029,CST-1368DR,9132,12780,15544,0.018,551
2019-06-09T09:40:53,42.805,6.029,CST-1368DR,9132,12779,15543,0.019,551
2019-06-09T09:43:55,42.805,6.029,CST-1368DR,9132,12780,15544,0.018,551
2019-06-09T09:46:56,42.805,6.029,CST-1368DR,9132,12778,15542,0.019,551
2019-06-09T09:49:58,42.805,6.029,CST-1368DR,9132,12777,15541,0.019,551
2019-06-09T09:52:59,42.805,6.029,CST-1368DR,9132,12776,15540,0.020,551
2019-06-09T09:56:00,42.805,6.029,CST-1368DR,9132,12780,15545,0.018,551
2019-06-09T09:59:02,42.805,6.029,CST-1368DR,9132,12779,15544,0.018,551
2019-06-09T10:02:03,42.805,6.029,CST-1368DR,9132,12778,15542,0.019,551
2019-06-09T10:05:05,42.805,6.029,CST-1368DR,9132,12779,15544,0.018,551
2019-06-09T10:08:06,42.805,6.029,CST-1368DR,9132,12779,15543,0.019,551
2019-06-09T10:11:07,42.805,6.029,CST-1368DR,9132,12780,15544,0.018,551
2019-06-09T10:14:09,42.805,6.029,CST-1368DR,9132,12779,15544,0.018,551
2019-06-09T10:17:10,42.805,6.029,CST-1368DR,9132,12780,15544,0.018,551
2019-06-09T10:20:12,42.805,6.029,CST-1368DR,9132,12779,15544,0.018,550
2019-06-09T10:23:13,42.805,6.029,CST-1368DR,9132,12779,15544,0.018,551
2019-06-09T10:26:15,42.805,6.029,CST-1368DR,9131,12778,15544,0.018,551
2019-06-09T10:29:16,42.805,6.029,CST-1368DR,9132,12779,15543,0.019,551
2019-06-09T10:32:17,42.805,6.029,CST-1368DR,9132,12778,15543,0.019,551
2019-06-09T10:35:19,42.805,6.029,CST-1368DR,9131,12778,15544,0.018,551
2019-06-09T10:38:20,42.805,6.029,CST-1368DR,9131,12777,15542,0.019,551
2019-06-09T10:41:22,42.805,6.029,CST-1368DR,9131,12780,15546,0.018,551
2019-06-09T10:44:23,42.805,6.029,CST-1368DR,9131,12778,15544,0.018,551
2019-06-09T10:47:24,42.805,6.029,CST-1368DR,9131,12780,15546,0.018,551
2019-06-09T10:50:26,42.805,6.029,CST-1368DR,9131,12777,15543,0.019,551
2019-06-09T10:53:27,42.805,6.029,CST-1368DR,9131,12778,15544,0.018,551
2019-06-09T10:56:29,42.805,6.029,CST-1368DR,9131,12776,15542,0.019,551
2019-06-09T10:59:30,42.805,6.029,CST-1368DR,9131,12779,15545,0.018,551
2019-06-09T11:02:31,42.805,6.029,CST-1368DR,9131,12778,15544,0.018,551
2019-06-09T11:05:33,42.805,6.029,CST-1368DR,9131,12778,15543,0.019,551
2019-06-09T11:08:34,42.805,6.029,CST-1368DR,9131,12777,15543,0.019,551
2019-06-09T11:11:36,42.805,6.029,CST-1368DR,9131,12778,15543,0.019,551
2019-06-09T11:14:37,42.805,6.029,CST-1368DR,9131,12778,15544,0.018,551
2019-06-09T11:17:39,42.805,6.029,CST-1368DR,9131,12778,15543,0.019,551
2019-06-09T11:20:40,42.805,6.029,CST-1368DR,9131,12779,15545,0.018,550
2019-06-09T11:23:41,42.805,6.029,CST-1368DR,9131,12778,15544,0.018,551
2019-06-09T11:26:43,42.805,6.029,CST-1368DR,9131,12778,15544,0.018,551
2019-06-09T11:29:44,42.805,6.029,CST-1368DR,9131,12779,15545,0.018,551
2019-06-09T11:32:46,42.805,6.029,CST-1368DR,9131,12775,15540,0.020,551
2019-06-09T11:35:47,42.805,6.029,CST-1368DR,9131,12780,15546,0.018,551
2019-06-09T11:38:48,42.805,6.029,CST-1368DR,9131,12778,15544,0.018,551
2019-06-09T11:41:50,42.805,6.029,CST-1368DR,9131,12779,15545,0.018,551
2019-06-09T11:44:51,42.805,6.029,CST-1368DR,9131,12779,15545,0.018,551
2019-06-09T11:47:53,42.805,6.029,CST-1368DR,9131,12779,15545,0.018,551
2019-06-09T11:50:54,42.805,6.029,CST-1368DR,9131,12779,15545,0.018,551
2019-06-09T11:53:55,42.805,6.029,CST-1368DR,9131,12779,15545,0.018,551
2019-06-09T11:56:57,42.805,6.029,CST-1368DR,9130,12775,15542,0.019,550
2019-06-09T11:59:58,42.805,6.029,CST-1368DR,9131,12778,15544,0.018,551
2019-06-09T12:03:00,42.805,6.029,CST-1368DR,9130,12779,15546,0.018,551
2019-06-09T12:06:01,42.805,6.029,CST-1368DR,9130,12780,15547,0.018,550
2019-06-09T12:09:02,42.805,6.029,CST-1368DR,9130,12779,15547,0.018,551
2019-06-09T12:12:04,42.805,6.029,CST-1368DR,9130,12780,15547,0.018,551
2019-06-09T12:15:05,42.805,6.029,CST-1368DR,9130,12776,15542,0.019,550
2019-06-09T12:18:07,42.805,6.029,CST-1368DR,9130,12779,15547,0.018,551
2019-06-09T12:21:08,42.805,6.029,CST-1368DR,9130,12777,15544,0.018,551
2019-06-09T12:24:10,42.805,6.029,CST-1368DR,9130,12779,15547,0.018,550
2019-06-09T12:27:11,42.805,6.029,CST-1368DR,9130,12778,15545,0.018,550
2019-06-09T12:30:12,42.805,6.029,CST-1368DR,9130,12778,15545,0.018,551
2019-06-09T12:33:14,42.805,6.029,CST-1368DR,9130,12778,15545,0.018,551
2019-06-09T12:36:15,42.805,6.029,CST-1368DR,9130,12778,15545,0.018,550
2019-06-09T12:39:17,42.805,6.029,CST-1368DR,9130,12776,15543,0.019,550
2019-06-09T12:42:18,42.805,6.029,CST-1368DR,9130,12778,15546,0.018,551
2019-06-09T12:45:19,42.805,6.029,CST-1368DR,9130,12778,15545,0.018,551
2019-06-09T12:48:21,42.805,6.029,CST-1368DR,9130,12779,15546,0.018,551
2019-06-09T12:51:22,42.805,6.029,CST-1368DR,9130,12779,15546,0.018,551
2019-06-09T12:54:24,42.805,6.029,CST-1368DR,9130,12778,15545,0.018,551
2019-06-09T12:57:25,42.805,6.029,CST-1368DR,9130,12779,15546,0.018,551
2019-06-09T13:00:26,42.805,6.029,CST-1368DR,9130,12779,15546,0.018,551
2019-06-09T13:03:28,42.805,6.029,CST-1368DR,9130,12779,15547,0.018,551
2019-06-09T13:06:29,42.805,6.029,CST-1368DR,9130,12779,15546,0.018,551
2019-06-09T13:09:31,42.805,6.029,CST-1368DR,9130,12778,15545,0.018,551
2019-06-09T13:12:32,42.805,6.029,CST-1368DR,9130,12777,15545,0.018,551
2019-06-09T13:15:33,42.805,6.029,CST-1368DR,9130,12778,15545,0.018,550
2019-06-09T13:18:35,42.805,6.029,CST-1368DR,9130,12779,15546,0.018,551
2019-06-09T13:21:36,42.805,6.029,CST-1368DR,9130,12778,15545,0.018,551
2019-06-09T13:24:38,42.805,6.029,CST-1368DR,9129,12773,15540,0.020,551
2019-06-09T13:27:39,42.805,6.029,CST-1368DR,9129,12776,15544,0.018,551
2019-06-09T13:30:41,42.805,6.029,CST-1368DR,9129,12777,15545,0.018,551
2019-06-09T13:33:42,42.805,6.029,CST-1368DR,9129,12776,15545,0.018,550
2019-06-09T13:36:43,42.805,6.029,CST-1368DR,9129,12776,15545,0.018,550
2019-06-09T13:39:45,42.805,6.029,CST-1368DR,9129,12777,15545,0.018,551
2019-06-09T13:42:46,42.805,6.029,CST-1368DR,9129,12776,15545,0.018,551
2019-06-09T13:45:48,42.805,6.029,CST-1368DR,9129,12776,15545,0.018,551
2019-06-09T13:48:49,42.805,6.029,CST-1368DR,9129,12778,15546,0.018,551
2019-06-09T13:51:50,42.805,6.029,CST-1368DR,9129,12777,15546,0.018,551
2019-06-09T13:54:52,42.805,6.029,CST-1368DR,9129,12778,15546,0.018,551
2019-06-09T13:57:53,42.805,6.029,CST-1368DR,9129,12776,15545,0.018,551
2019-06-09T14:00:55,42.805,6.029,CST-1368DR,9129,12776,15545,0.018,551
2019-06-09T14:03:56,42.805,6.029,CST-1368DR,9129,12773,15540,0.020,551
2019-06-09T14:06:57,42.805,6.029,CST-1368DR,9129,12776,15545,0.018,550
2019-06-09T14:09:59,42.805,6.029,CST-1368DR,9129,12777,15545,0.018,551
2019-06-09T14:13:00,42.805,6.029,CST-1368DR,9129,12764,15530,0.022,551
2019-06-09T14:16:02,42.805,6.029,CST-1368DR,9129,12775,15544,0.018,550
2019-06-09T14:19:03,42.805,6.029,CST-1368DR,9129,12777,15546,0.018,551
2019-06-09T14:22:05,42.805,6.029,CST-1368DR,9129,12777,15545,0.018,551
2019-06-09T14:25:06,42.805,6.029,CST-1368DR,9129,12777,15546,0.018,551
2019-06-09T14:28:07,42.805,6.029,CST-1368DR,9129,12777,15546,0.018,551
2019-06-09T14:31:09,42.805,6.029,CST-1368DR,9129,12776,15544,0.018,551
2019-06-09T14:34:10,42.805,6.029,CST-1368DR,9129,12777,15545,0.018,551
2019-06-09T14:37:12,42.805,6.029,CST-1368DR,9129,12776,15545,0.018,550
2019-06-09T14:40:13,42.805,6.029,CST-1368DR,9129,12776,15545,0.018,551
2019-06-09T14:43:14,42.805,6.029,CST-1368DR,9129,12776,15545,0.018,551
2019-06-09T14:46:16,42.805,6.029,CST-1368DR,9129,12769,15536,0.021,551
2019-06-09T14:49:17,42.805,6.029,CST-1368DR,9129,12775,15543,0.019,551
2019-06-09T14:52:19,42.805,6.029,CST-1368DR,9129,12776,15545,0.018,551
2019-06-09T14:55:20,42.805,6.029,CST-1368DR,9129,12775,15543,0.019,551
2019-06-09T14:58:21,42.805,6.029,CST-1368DR,9128,12776,15546,0.018,550
2019-06-09T15:01:23,42.805,6.029,CST-1368DR,9128,12777,15547,0.018,551
2019-06-09T15:04:24,42.805,6.029,CST-1368DR,9128,12775,15545,0.018,551
2019-06-09T15:07:26,42.805,6.029,CST-1368DR,9128,12776,15546,0.018,551
2019-06-09T15:10:27,42.805,6.029,CST-1368DR,9128,12776,15546,0.018,551
2019-06-09T15:13:28,42.805,6.029,CST-1368DR,9128,12775,15545,0.018,551
2019-06-09T15:16:30,42.805,6.029,CST-1368DR,9128,12775,15545,0.018,550
2019-06-09T15:19:31,42.805,6.029,CST-1368DR,9128,12772,15541,0.019,551
2019-06-09T15:22:33,42.805,6.029,CST-1368DR,9128,12774,15544,0.018,551
2019-06-09T15:25:34,42.805,6.029,CST-1368DR,9128,12775,15545,0.018,551
2019-06-09T15:28:36,42.805,6.029,CST-1368DR,9128,12772,15541,0.019,551
2019-06-09T15:31:37,42.805,6.029,CST-1368DR,9128,12774,15544,0.018,550
2019-06-09T15:34:38,42.805,6.029,CST-1368DR,9128,12775,15545,0.018,551
2019-06-09T15:37:40,42.805,6.029,CST-1368DR,9128,12775,15545,0.018,551
2019-06-09T15:40:41,42.805,6.029,CST-1368DR,9128,12776,15546,0.018,551
2019-06-09T15:43:43,42.805,6.029,CST-1368DR,9128,12775,15545,0.018,551
2019-06-09T15:46:44,42.805,6.029,CST-1368DR,9128,12776,15546,0.018,551
2019-06-09T15:49:45,42.805,6.029,CST-1368DR,9128,12775,15545,0.018,551
2019-06-09T15:52:47,42.805,6.029,CST-1368DR,9128,12776,15546,0.018,551
2019-06-09T15:55:48,42.805,6.029,CST-1368DR,9128,12774,15544,0.018,551
2019-06-09T15:58:50,42.805,6.029,CST-1368DR,9128,12776,15546,0.018,550
2019-06-09T16:01:51,42.805,6.029,CST-1368DR,9128,12775,15545,0.018,551
2019-06-09T16:04:52,42.805,6.029,CST-1368DR,9128,12775,15545,0.018,551
2019-06-09T16:07:54,42.805,6.029,CST-1368DR,9128,12774,15544,0.018,551
2019-06-09T16:10:55,42.805,6.029,CST-1368DR,9128,12775,15544,0.018,551
2019-06-09T16:13:57,42.805,6.029,CST-1368DR,9128,12774,15543,0.019,551
2019-06-09T16:16:58,42.805,6.029,CST-1368DR,9128,12773,15543,0.019,551
2019-06-09T16:19:59,42.805,6.029,CST-1368DR,9128,12766,15534,0.021,551
2019-06-09T16:23:01,42.805,6.029,CST-1368DR,9128,12774,15543,0.019,551
2019-06-09T16:26:02,42.805,6.029,CST-1368DR,9128,12774,15544,0.018,551
2019-06-09T16:29:04,42.805,6.029,CST-1368DR,9128,12774,15544,0.018,551
2019-06-09T16:32:05,42.805,6.029,CST-1368DR,9128,12773,15542,0.019,551
2019-06-09T16:35:07,42.805,6.029,CST-1368DR,9127,12776,15547,0.018,551